User: anonymous   Login
Location: Marseilles
(40.7010°N, 83.3930°W)
Time: 11:17:24
(UTC-05:00)
Language:

Cosmos 1459 Rocket - Orbit

View from above orbital plane
View from above orbital plane
View from above satellite
View from above satellite

Ground track
Ground track

The orbit data is extracted from the following two-line orbital elements,

1 14059U 83042B   18020.79291108 +.00000072 +00000-0 +55895-4 0  9999
2 14059 082.9710 260.4062 0043161 017.3650 342.8972 13.78609281745472
Epoch (UTC): 20 January 2018 19:01:47
Eccentricity: 0.0043161
inclination: 82.9710°
perigee height: 937 km
apogee height: 1000 km
right ascension of ascending node: 260.4062°
argument of perigee: 17.3650°
revolutions per day: 13.78609281
mean anomaly at epoch: 342.8972°
orbit number at epoch: 74547

The dashed part of the orbit path shows where the satellite is in the earth's shadow,  

DLR